RYR86JB LOWW-LICC

Flight info

Callsign RYR86JB
Flight time 1h 48m
Altitude 38000
Route STEIN DCT NOHAT DCT NEKIN DCT NIVES DCT RASTU DCT PALEZ DCT MOLUX DCT NERAR DCT VAKOR DCT PELEN DCT UXUTA
Aircraft B738/M-SDE3FGILRWY/SB1

Departure

Time 2026-04-26 13:02
Airport Vienna International Airport (LOWW)

Arrival

Time 2026-04-26 14:51
Airport Catania-Fontanarossa Airport (LICC)
Time Latitude Longitude Altitude Speed Heading
2026-04-26 12:31 48.11935 16.55809 608 ft 0 kts 296°
2026-04-26 12:38 48.11935 16.55810 608 ft 0 kts 296°
2026-04-26 12:50 48.11930 16.55829 608 ft 2 kts 315°
2026-04-26 12:51 48.11924 16.55847 608 ft 0 kts 291°
2026-04-26 12:51 48.11920 16.55861 608 ft 2 kts 298°
2026-04-26 12:51 48.11916 16.55873 608 ft 2 kts 295°
2026-04-26 12:51 48.11913 16.55896 608 ft 2 kts 260°
2026-04-26 12:52 48.11918 16.55916 608 ft 2 kts 233°
2026-04-26 12:52 48.11928 16.55930 608 ft 0 kts 209°
2026-04-26 12:52 48.11933 16.55934 608 ft 1 kts 205°
2026-04-26 12:52 48.11935 16.55934 608 ft 0 kts 205°
2026-04-26 12:54 48.11923 16.55926 608 ft 7 kts 205°
2026-04-26 12:55 48.11867 16.55887 608 ft 10 kts 206°
2026-04-26 12:55 48.11783 16.55824 608 ft 14 kts 206°
2026-04-26 12:55 48.11693 16.55813 608 ft 13 kts 136°
2026-04-26 12:55 48.11649 16.55925 608 ft 12 kts 115°
2026-04-26 12:56 48.11606 16.56061 608 ft 17 kts 116°
2026-04-26 12:56 48.11549 16.56241 608 ft 20 kts 116°
2026-04-26 12:56 48.11486 16.56434 608 ft 20 kts 117°
2026-04-26 12:56 48.11425 16.56617 608 ft 19 kts 116°
2026-04-26 12:57 48.11369 16.56794 608 ft 19 kts 116°
2026-04-26 12:57 48.11292 16.57032 608 ft 28 kts 114°
2026-04-26 12:57 48.11204 16.57296 608 ft 28 kts 117°
2026-04-26 12:58 48.11046 16.57761 608 ft 23 kts 134°
2026-04-26 12:58 48.10894 16.57857 608 ft 26 kts 165°
2026-04-26 12:58 48.10687 16.57947 608 ft 32 kts 164°
2026-04-26 12:58 48.10498 16.58025 608 ft 23 kts 164°
2026-04-26 12:59 48.10341 16.58092 608 ft 23 kts 164°
2026-04-26 12:59 48.10187 16.58155 608 ft 22 kts 165°
2026-04-26 12:59 48.10034 16.58218 608 ft 22 kts 163°
2026-04-26 12:59 48.09879 16.58286 608 ft 27 kts 164°
2026-04-26 13:00 48.09708 16.58359 608 ft 24 kts 164°
2026-04-26 13:00 48.09547 16.58427 608 ft 23 kts 165°
2026-04-26 13:00 48.09389 16.58493 608 ft 23 kts 165°
2026-04-26 13:00 48.09234 16.58560 608 ft 22 kts 164°
2026-04-26 13:01 48.09078 16.58626 608 ft 23 kts 165°
2026-04-26 13:01 48.08945 16.58747 608 ft 22 kts 124°
2026-04-26 13:01 48.08945 16.58960 608 ft 21 kts 55°
2026-04-26 13:01 48.09068 16.59044 608 ft 19 kts 355°
2026-04-26 13:02 48.09269 16.58968 608 ft 47 kts 345°
2026-04-26 13:02 48.09780 16.58751 608 ft 108 kts 347°
2026-04-26 13:02 48.10692 16.58360 615 ft 161 kts 343°
2026-04-26 13:02 48.11759 16.57868 1243 ft 161 kts 347°
2026-04-26 13:03 48.12806 16.57296 1643 ft 173 kts 323°
2026-04-26 13:03 48.13455 16.55750 2241 ft 191 kts 282°
2026-04-26 13:03 48.13161 16.53744 2788 ft 215 kts 240°
2026-04-26 13:03 48.11961 16.52290 3395 ft 233 kts 208°
2026-04-26 13:04 48.10432 16.51424 4147 ft 237 kts 204°
2026-04-26 13:04 48.08884 16.50575 4908 ft 238 kts 206°
2026-04-26 13:04 48.07364 16.49646 5673 ft 238 kts 209°
2026-04-26 13:04 48.05873 16.48661 6434 ft 237 kts 214°
2026-04-26 13:05 48.04440 16.47417 7042 ft 243 kts 220°
2026-04-26 13:05 48.02984 16.45974 7496 ft 258 kts 221°
2026-04-26 13:05 48.01461 16.44444 7944 ft 273 kts 220°
2026-04-26 13:05 47.99814 16.42939 8446 ft 289 kts 212°
2026-04-26 13:06 47.97853 16.42089 9063 ft 307 kts 188°
2026-04-26 13:06 47.95684 16.42415 9757 ft 317 kts 172°
2026-04-26 13:06 47.93530 16.43201 10408 ft 323 kts 168°
2026-04-26 13:06 47.91334 16.44069 10867 ft 337 kts 168°
2026-04-26 13:07 47.89026 16.44957 11321 ft 350 kts 169°
2026-04-26 13:07 47.86594 16.45854 11698 ft 365 kts 169°
2026-04-26 13:07 47.84098 16.46748 12202 ft 376 kts 169°
2026-04-26 13:07 47.81536 16.47652 12843 ft 382 kts 169°
2026-04-26 13:08 47.78930 16.48568 13554 ft 387 kts 169°
2026-04-26 13:08 47.76335 16.49477 14246 ft 391 kts 169°
2026-04-26 13:08 47.73676 16.50408 15016 ft 394 kts 169°
2026-04-26 13:08 47.71012 16.51340 15763 ft 398 kts 169°
2026-04-26 13:09 47.68313 16.52284 16487 ft 401 kts 168°
2026-04-26 13:09 47.65588 16.53237 17200 ft 405 kts 168°
2026-04-26 13:09 47.62839 16.54199 17911 ft 408 kts 168°
2026-04-26 13:09 47.60082 16.55163 18566 ft 412 kts 168°
2026-04-26 13:10 47.57268 16.56150 19246 ft 416 kts 168°
2026-04-26 13:10 47.54458 16.57134 19931 ft 418 kts 168°
2026-04-26 13:10 47.51603 16.58131 20592 ft 421 kts 169°
2026-04-26 13:10 47.48768 16.58989 21229 ft 422 kts 172°
2026-04-26 13:11 47.45874 16.59649 21888 ft 424 kts 174°
2026-04-26 13:11 47.42938 16.60201 22444 ft 427 kts 176°
2026-04-26 13:11 47.39957 16.60537 23070 ft 428 kts 180°
2026-04-26 13:11 47.36991 16.60672 23655 ft 430 kts 182°
2026-04-26 13:12 47.33987 16.60728 24202 ft 433 kts 182°
2026-04-26 13:12 47.30990 16.60765 24750 ft 436 kts 182°
2026-04-26 13:12 47.27942 16.60812 25303 ft 438 kts 182°
2026-04-26 13:12 47.24912 16.60875 25829 ft 441 kts 182°
2026-04-26 13:13 47.21831 16.60959 26371 ft 443 kts 181°
2026-04-26 13:13 47.18784 16.61057 26878 ft 445 kts 181°
2026-04-26 13:13 47.15678 16.61170 27371 ft 447 kts 181°
2026-04-26 13:13 47.12547 16.61292 27853 ft 450 kts 181°
2026-04-26 13:14 47.09452 16.61419 28301 ft 452 kts 181°
2026-04-26 13:14 47.06271 16.61552 28749 ft 455 kts 181°
2026-04-26 13:14 47.03109 16.61687 29198 ft 457 kts 181°
2026-04-26 13:14 46.99967 16.61822 29665 ft 459 kts 181°
2026-04-26 13:15 46.96748 16.61960 30107 ft 460 kts 181°
2026-04-26 13:15 46.93568 16.62097 30745 ft 457 kts 181°
2026-04-26 13:15 46.90378 16.62237 31421 ft 453 kts 181°
2026-04-26 13:15 46.88284 16.62327 31806 ft 452 kts 181°
2026-04-26 13:16 46.84094 16.62508 32533 ft 449 kts 181°
2026-04-26 13:16 46.80957 16.62659 33016 ft 449 kts 180°
2026-04-26 13:16 46.77867 16.63001 33510 ft 448 kts 177°
2026-04-26 13:16 46.74758 16.63532 33990 ft 447 kts 175°
2026-04-26 13:17 46.68625 16.64795 34802 ft 446 kts 174°
2026-04-26 13:17 46.65551 16.65447 35197 ft 446 kts 174°
2026-04-26 13:18 46.59407 16.66712 35999 ft 444 kts 175°
2026-04-26 13:18 46.56338 16.67324 36376 ft 444 kts 175°
2026-04-26 13:18 46.50246 16.68510 37033 ft 443 kts 175°
2026-04-26 13:19 46.47193 16.69094 37333 ft 443 kts 175°
2026-04-26 13:19 46.44144 16.69532 37616 ft 441 kts 180°
2026-04-26 13:19 46.41065 16.69550 37884 ft 439 kts 186°
2026-04-26 13:19 46.38045 16.69085 38106 ft 437 kts 193°
2026-04-26 13:20 46.35126 16.68004 38171 ft 434 kts 204°
2026-04-26 13:20 46.29745 16.64194 38174 ft 430 kts 213°
2026-04-26 13:21 46.24560 16.59997 38158 ft 428 kts 212°
2026-04-26 13:21 46.19294 16.55964 38164 ft 430 kts 211°
2026-04-26 13:22 46.13979 16.52138 38154 ft 429 kts 209°
2026-04-26 13:22 46.08423 16.49081 38159 ft 433 kts 199°
2026-04-26 13:23 46.02558 16.46928 38155 ft 435 kts 197°
2026-04-26 13:23 45.96695 16.44911 38162 ft 436 kts 197°
2026-04-26 13:24 45.90781 16.42784 38157 ft 435 kts 198°
2026-04-26 13:24 45.84936 16.40608 38149 ft 435 kts 198°
2026-04-26 13:25 45.79115 16.38409 38155 ft 435 kts 198°
2026-04-26 13:25 45.73272 16.36192 38149 ft 434 kts 198°
2026-04-26 13:26 45.67422 16.33991 38146 ft 435 kts 197°
2026-04-26 13:26 45.61562 16.31783 38146 ft 436 kts 197°
2026-04-26 13:27 45.55703 16.29562 38149 ft 436 kts 197°
2026-04-26 13:27 45.49848 16.27349 38141 ft 436 kts 197°
2026-04-26 13:28 45.43940 16.25124 38145 ft 437 kts 197°
2026-04-26 13:28 45.38067 16.22921 38144 ft 436 kts 197°
2026-04-26 13:29 45.32206 16.20728 38151 ft 437 kts 197°
2026-04-26 13:29 45.26356 16.18544 38152 ft 436 kts 197°
2026-04-26 13:30 45.20482 16.16355 38154 ft 438 kts 197°
2026-04-26 13:30 45.14604 16.14170 38153 ft 439 kts 197°
2026-04-26 13:31 45.08686 16.11974 38153 ft 438 kts 197°
2026-04-26 13:31 45.02779 16.09788 38154 ft 437 kts 197°
2026-04-26 13:32 44.96923 16.07625 38157 ft 438 kts 197°
2026-04-26 13:32 44.91028 16.05453 38158 ft 437 kts 197°
2026-04-26 13:33 44.85107 16.03275 38147 ft 438 kts 197°
2026-04-26 13:33 44.79207 16.01109 38150 ft 438 kts 197°
2026-04-26 13:34 44.73345 15.98962 38146 ft 438 kts 197°
2026-04-26 13:34 44.67452 15.96809 38146 ft 437 kts 197°
2026-04-26 13:35 44.61533 15.94651 38144 ft 437 kts 197°
2026-04-26 13:35 44.55676 15.92519 38139 ft 436 kts 197°
2026-04-26 13:36 44.49756 15.90368 38142 ft 437 kts 197°
2026-04-26 13:36 44.43865 15.88233 38134 ft 438 kts 197°
2026-04-26 13:37 44.38000 15.86113 38136 ft 437 kts 197°
2026-04-26 13:37 44.32087 15.83979 38136 ft 437 kts 197°
2026-04-26 13:38 44.26234 15.81871 38135 ft 437 kts 197°
2026-04-26 13:38 44.20355 15.79758 38130 ft 436 kts 197°
2026-04-26 13:39 44.14487 15.77653 38122 ft 437 kts 197°
2026-04-26 13:39 44.08611 15.75550 38104 ft 437 kts 197°
2026-04-26 13:40 44.02714 15.73444 38097 ft 438 kts 197°
2026-04-26 13:40 43.96813 15.71340 38084 ft 438 kts 197°
2026-04-26 13:41 43.90921 15.69244 38082 ft 437 kts 197°
2026-04-26 13:41 43.85045 15.67158 38077 ft 436 kts 197°
2026-04-26 13:42 43.79156 15.65071 38069 ft 437 kts 197°
2026-04-26 13:42 43.73275 15.62992 38072 ft 437 kts 197°
2026-04-26 13:43 43.67414 15.60924 38071 ft 437 kts 197°
2026-04-26 13:43 43.61493 15.58840 38074 ft 437 kts 197°
2026-04-26 13:44 43.55632 15.56781 38076 ft 437 kts 197°
2026-04-26 13:44 43.49728 15.54710 38083 ft 436 kts 197°
2026-04-26 13:45 43.43843 15.52651 38080 ft 437 kts 197°
2026-04-26 13:45 43.37996 15.50609 38082 ft 436 kts 197°
2026-04-26 13:46 43.32134 15.48566 38083 ft 437 kts 197°
2026-04-26 13:46 43.26239 15.46514 38084 ft 437 kts 197°
2026-04-26 13:47 43.20374 15.44478 38084 ft 436 kts 197°
2026-04-26 13:47 43.14473 15.42433 38089 ft 436 kts 197°
2026-04-26 13:48 43.08608 15.40405 38089 ft 435 kts 197°
2026-04-26 13:48 43.02748 15.38383 38090 ft 435 kts 197°
2026-04-26 13:49 42.96886 15.36364 38091 ft 436 kts 197°
2026-04-26 13:49 42.90991 15.34337 38089 ft 436 kts 196°
2026-04-26 13:50 42.85102 15.32316 38091 ft 436 kts 196°
2026-04-26 13:50 42.79196 15.30294 38091 ft 436 kts 196°
2026-04-26 13:51 42.73367 15.28303 38091 ft 435 kts 196°
2026-04-26 13:51 42.67510 15.26305 38090 ft 434 kts 196°
2026-04-26 13:52 42.61664 15.24315 38090 ft 435 kts 196°
2026-04-26 13:52 42.55769 15.22312 38090 ft 435 kts 196°
2026-04-26 13:53 42.49941 15.20335 38092 ft 434 kts 196°
2026-04-26 13:53 42.44078 15.18352 38092 ft 434 kts 196°
2026-04-26 13:54 42.38192 15.16364 38088 ft 433 kts 196°
2026-04-26 13:54 42.32354 15.14396 38089 ft 433 kts 196°
2026-04-26 13:55 42.24562 15.11775 38089 ft 434 kts 196°
2026-04-26 13:56 42.14775 15.08492 38090 ft 434 kts 196°
2026-04-26 13:56 42.08955 15.06546 38090 ft 434 kts 196°
2026-04-26 13:57 42.03091 15.04588 38089 ft 433 kts 196°
2026-04-26 13:57 41.97224 15.02632 38091 ft 433 kts 196°
2026-04-26 13:58 41.91381 15.00688 38095 ft 433 kts 196°
2026-04-26 13:58 41.85553 14.98753 38099 ft 432 kts 196°
2026-04-26 13:59 41.79736 14.96825 38105 ft 433 kts 196°
2026-04-26 13:59 41.73848 14.94877 38110 ft 434 kts 196°
2026-04-26 14:00 41.62188 14.91031 38119 ft 433 kts 196°
2026-04-26 14:01 41.56318 14.89101 38124 ft 432 kts 196°
2026-04-26 14:01 41.50476 14.87183 38132 ft 432 kts 196°
2026-04-26 14:02 41.44655 14.85276 38135 ft 433 kts 196°
2026-04-26 14:02 41.38795 14.83360 38135 ft 433 kts 196°
2026-04-26 14:03 41.32964 14.81456 38130 ft 433 kts 195°
2026-04-26 14:03 41.27083 14.79609 38127 ft 433 kts 194°
2026-04-26 14:04 41.21204 14.77979 38126 ft 433 kts 193°
2026-04-26 14:04 41.15295 14.76388 38124 ft 433 kts 193°
2026-04-26 14:05 41.09375 14.74784 38127 ft 433 kts 193°
2026-04-26 14:05 41.03471 14.73170 38128 ft 432 kts 193°
2026-04-26 14:06 40.97606 14.71559 38131 ft 433 kts 193°
2026-04-26 14:06 40.91691 14.69935 38126 ft 433 kts 193°
2026-04-26 14:07 40.85809 14.68321 38130 ft 433 kts 193°
2026-04-26 14:07 40.79903 14.66703 38130 ft 433 kts 193°
2026-04-26 14:08 40.74015 14.65094 38133 ft 433 kts 193°
2026-04-26 14:08 40.68119 14.63484 38129 ft 432 kts 193°
2026-04-26 14:09 40.62218 14.61877 38130 ft 433 kts 193°
2026-04-26 14:09 40.56328 14.60275 38128 ft 433 kts 193°
2026-04-26 14:10 40.50433 14.58674 38125 ft 433 kts 193°
2026-04-26 14:10 40.44533 14.57076 38127 ft 434 kts 193°
2026-04-26 14:11 40.35680 14.54683 38129 ft 433 kts 193°
2026-04-26 14:11 40.29792 14.53094 38128 ft 433 kts 193°
2026-04-26 14:12 40.23864 14.51498 38138 ft 434 kts 193°
2026-04-26 14:12 40.17974 14.49915 38129 ft 433 kts 194°
2026-04-26 14:13 40.09118 14.47540 38137 ft 435 kts 193°
2026-04-26 14:14 40.03185 14.45952 38137 ft 434 kts 193°
2026-04-26 14:14 39.97285 14.44376 38141 ft 434 kts 193°
2026-04-26 14:15 39.91344 14.42792 38142 ft 433 kts 194°
2026-04-26 14:15 39.85437 14.41220 38149 ft 433 kts 194°
2026-04-26 14:16 39.79542 14.39654 38144 ft 433 kts 194°
2026-04-26 14:16 39.73632 14.38085 38150 ft 434 kts 194°
2026-04-26 14:17 39.67756 14.36529 38146 ft 433 kts 194°
2026-04-26 14:17 39.61842 14.34966 38146 ft 434 kts 193°
2026-04-26 14:18 39.55943 14.33409 38144 ft 433 kts 193°
2026-04-26 14:18 39.50010 14.31847 38150 ft 434 kts 193°
2026-04-26 14:19 39.44139 14.30304 38147 ft 433 kts 193°
2026-04-26 14:19 39.38224 14.28751 38150 ft 433 kts 193°
2026-04-26 14:20 39.32339 14.27209 38149 ft 434 kts 193°
2026-04-26 14:20 39.26393 14.25685 38150 ft 434 kts 193°
2026-04-26 14:21 39.20462 14.24245 38154 ft 434 kts 192°
2026-04-26 14:21 39.14530 14.22822 38149 ft 433 kts 193°
2026-04-26 14:22 39.08604 14.21397 38153 ft 433 kts 193°
2026-04-26 14:22 39.02674 14.19967 38150 ft 432 kts 193°
2026-04-26 14:23 38.96753 14.18537 38113 ft 433 kts 193°
2026-04-26 14:23 38.93790 14.17822 37482 ft 436 kts 193°
2026-04-26 14:23 38.90841 14.17112 37082 ft 430 kts 193°
2026-04-26 14:23 38.87869 14.16484 36405 ft 432 kts 189°
2026-04-26 14:24 38.84923 14.16274 35968 ft 429 kts 180°
2026-04-26 14:24 38.81957 14.16790 35409 ft 430 kts 168°
2026-04-26 14:24 38.79112 14.18006 34939 ft 428 kts 160°
2026-04-26 14:24 38.76406 14.19486 34393 ft 426 kts 158°
2026-04-26 14:25 38.73719 14.21082 33913 ft 423 kts 156°
2026-04-26 14:25 38.71077 14.22706 33452 ft 420 kts 156°
2026-04-26 14:25 38.68486 14.24310 33011 ft 416 kts 156°
2026-04-26 14:25 38.65895 14.25911 32557 ft 412 kts 156°
2026-04-26 14:26 38.63334 14.27482 32120 ft 408 kts 156°
2026-04-26 14:26 38.60792 14.29030 31621 ft 406 kts 156°
2026-04-26 14:26 38.58253 14.30568 31175 ft 402 kts 157°
2026-04-26 14:26 38.55740 14.32082 30710 ft 399 kts 157°
2026-04-26 14:27 38.53236 14.33585 30295 ft 394 kts 157°
2026-04-26 14:27 38.50758 14.35070 29805 ft 392 kts 157°
2026-04-26 14:27 38.48325 14.36524 29329 ft 389 kts 157°
2026-04-26 14:27 38.45874 14.37987 28886 ft 385 kts 157°
2026-04-26 14:28 38.43457 14.39428 28372 ft 383 kts 157°
2026-04-26 14:28 38.41061 14.40856 27893 ft 381 kts 157°
2026-04-26 14:28 38.38668 14.42281 27457 ft 377 kts 157°
2026-04-26 14:28 38.36335 14.43670 27010 ft 374 kts 157°
2026-04-26 14:29 38.33973 14.45074 26575 ft 371 kts 156°
2026-04-26 14:29 38.31655 14.46451 26086 ft 369 kts 156°
2026-04-26 14:29 38.29344 14.47824 25646 ft 366 kts 156°
2026-04-26 14:29 38.27045 14.49190 25170 ft 364 kts 156°
2026-04-26 14:30 38.24764 14.50544 24746 ft 361 kts 156°
2026-04-26 14:30 38.22471 14.51904 24284 ft 358 kts 156°
2026-04-26 14:30 38.20237 14.53228 23818 ft 356 kts 156°
2026-04-26 14:30 38.18000 14.54553 23375 ft 353 kts 156°
2026-04-26 14:31 38.15757 14.55880 22911 ft 351 kts 156°
2026-04-26 14:31 38.13576 14.57170 22472 ft 348 kts 156°
2026-04-26 14:31 38.11396 14.58458 22021 ft 346 kts 156°
2026-04-26 14:31 38.09220 14.59742 21584 ft 343 kts 156°
2026-04-26 14:32 38.07067 14.61013 21169 ft 341 kts 156°
2026-04-26 14:32 38.04914 14.62284 20734 ft 338 kts 156°
2026-04-26 14:32 38.02800 14.63530 20305 ft 336 kts 156°
2026-04-26 14:32 38.00700 14.64767 19881 ft 334 kts 156°
2026-04-26 14:33 37.98605 14.66000 19449 ft 332 kts 156°
2026-04-26 14:33 37.96524 14.67224 19015 ft 330 kts 157°
2026-04-26 14:33 37.94416 14.68367 18579 ft 327 kts 160°
2026-04-26 14:33 37.92246 14.69205 18133 ft 324 kts 168°
2026-04-26 14:34 37.90053 14.69703 17719 ft 321 kts 174°
2026-04-26 14:34 37.87817 14.69696 17253 ft 318 kts 194°
2026-04-26 14:34 37.85833 14.68648 16850 ft 313 kts 215°
2026-04-26 14:34 37.84223 14.66806 16424 ft 310 kts 231°
2026-04-26 14:35 37.83024 14.64588 15989 ft 309 kts 240°
2026-04-26 14:35 37.82034 14.62202 15579 ft 307 kts 244°
2026-04-26 14:35 37.81123 14.59743 15117 ft 307 kts 245°
2026-04-26 14:35 37.80244 14.57314 14737 ft 304 kts 245°
2026-04-26 14:36 37.79364 14.54912 14412 ft 300 kts 245°
2026-04-26 14:36 37.78482 14.52548 14024 ft 298 kts 244°
2026-04-26 14:36 37.77590 14.50185 13702 ft 295 kts 244°
2026-04-26 14:36 37.76586 14.47966 13329 ft 292 kts 233°
2026-04-26 14:37 37.75104 14.46239 12924 ft 290 kts 208°
2026-04-26 14:37 37.73224 14.45461 12566 ft 287 kts 187°
2026-04-26 14:37 37.71221 14.45445 12129 ft 287 kts 176°
2026-04-26 14:37 37.69253 14.45654 11730 ft 286 kts 175°
2026-04-26 14:38 37.67274 14.45886 11399 ft 284 kts 174°
2026-04-26 14:38 37.65315 14.46114 11016 ft 283 kts 174°
2026-04-26 14:38 37.63356 14.46335 10636 ft 282 kts 175°
2026-04-26 14:38 37.62051 14.46401 10463 ft 278 kts 181°
2026-04-26 14:39 37.59490 14.46034 9888 ft 281 kts 190°
2026-04-26 14:39 37.57583 14.45550 9432 ft 283 kts 192°
2026-04-26 14:39 37.55647 14.45041 8965 ft 286 kts 191°
2026-04-26 14:39 37.53683 14.44551 8451 ft 289 kts 191°
2026-04-26 14:40 37.51709 14.44121 7911 ft 285 kts 186°
2026-04-26 14:40 37.49765 14.44064 7400 ft 278 kts 176°
2026-04-26 14:40 37.47879 14.44317 6900 ft 271 kts 172°
2026-04-26 14:40 37.46026 14.44649 6387 ft 266 kts 171°
2026-04-26 14:41 37.44238 14.45146 5870 ft 260 kts 160°
2026-04-26 14:41 37.42688 14.46207 5366 ft 259 kts 136°
2026-04-26 14:41 37.41794 14.48095 5015 ft 248 kts 101°
2026-04-26 14:41 37.41735 14.50141 5019 ft 225 kts 84°
2026-04-26 14:42 37.41902 14.52061 5028 ft 216 kts 82°
2026-04-26 14:42 37.42075 14.53889 5022 ft 201 kts 82°
2026-04-26 14:42 37.42229 14.55576 5030 ft 192 kts 82°
2026-04-26 14:42 37.42381 14.57261 5033 ft 193 kts 83°
2026-04-26 14:43 37.42530 14.58928 5023 ft 193 kts 82°
2026-04-26 14:43 37.42680 14.60611 5022 ft 193 kts 82°
2026-04-26 14:43 37.42827 14.62265 5020 ft 193 kts 82°
2026-04-26 14:43 37.42976 14.63953 5017 ft 193 kts 82°
2026-04-26 14:44 37.43126 14.65639 5018 ft 194 kts 82°
2026-04-26 14:44 37.43274 14.67310 5018 ft 194 kts 82°
2026-04-26 14:44 37.43425 14.69019 5018 ft 194 kts 82°
2026-04-26 14:44 37.43571 14.70679 5016 ft 191 kts 82°
2026-04-26 14:45 37.43719 14.72357 5016 ft 194 kts 82°
2026-04-26 14:45 37.43819 14.73489 5006 ft 195 kts 82°
2026-04-26 14:45 37.44017 14.75750 4726 ft 196 kts 82°
2026-04-26 14:45 37.44163 14.77430 4415 ft 191 kts 82°
2026-04-26 14:46 37.44308 14.79086 4165 ft 191 kts 82°
2026-04-26 14:46 37.44451 14.80722 3901 ft 190 kts 82°
2026-04-26 14:46 37.44595 14.82371 3641 ft 188 kts 82°
2026-04-26 14:46 37.44730 14.83952 3375 ft 176 kts 82°
2026-04-26 14:47 37.44859 14.85435 3167 ft 164 kts 81°
2026-04-26 14:47 37.44984 14.86863 2944 ft 166 kts 81°
2026-04-26 14:47 37.45109 14.88292 2704 ft 163 kts 82°
2026-04-26 14:47 37.45229 14.89696 2487 ft 163 kts 82°
2026-04-26 14:48 37.45349 14.91104 2324 ft 162 kts 81°
2026-04-26 14:48 37.45473 14.92513 2041 ft 160 kts 81°
2026-04-26 14:48 37.45589 14.93892 1841 ft 160 kts 81°
2026-04-26 14:48 37.45708 14.95266 1626 ft 158 kts 81°
2026-04-26 14:49 37.45826 14.96620 1409 ft 151 kts 82°
2026-04-26 14:49 37.45930 14.97877 1209 ft 140 kts 82°
2026-04-26 14:49 37.46036 14.99091 1049 ft 141 kts 82°
2026-04-26 14:49 37.46139 15.00310 857 ft 139 kts 82°
2026-04-26 14:50 37.46241 15.01520 675 ft 138 kts 82°
2026-04-26 14:50 37.46346 15.02712 492 ft 137 kts 83°
2026-04-26 14:50 37.46457 15.03915 305 ft 137 kts 83°
2026-04-26 14:50 37.46556 15.05100 126 ft 137 kts 84°
2026-04-26 14:51 37.46648 15.06230 30 ft 118 kts 83°
2026-04-26 14:51 37.46713 15.06990 23 ft 61 kts 83°
2026-04-26 14:51 37.46749 15.07454 22 ft 38 kts 84°
2026-04-26 14:51 37.46837 15.07740 22 ft 25 kts 53°
2026-04-26 14:52 37.46935 15.07759 22 ft 17 kts 275°
2026-04-26 14:52 37.46924 15.07608 22 ft 17 kts 263°
2026-04-26 14:52 37.46911 15.07457 22 ft 17 kts 264°
2026-04-26 14:52 37.46898 15.07310 22 ft 16 kts 263°
2026-04-26 14:53 37.46886 15.07166 22 ft 16 kts 265°
2026-04-26 14:53 37.46876 15.07025 23 ft 15 kts 265°
2026-04-26 14:53 37.46864 15.06892 24 ft 15 kts 264°
2026-04-26 14:53 37.46849 15.06720 25 ft 20 kts 264°
2026-04-26 14:54 37.46835 15.06548 27 ft 19 kts 264°
2026-04-26 14:54 37.46822 15.06399 28 ft 10 kts 264°
2026-04-26 14:54 37.46842 15.06369 28 ft 4 kts 357°
2026-04-26 14:54 37.46872 15.06366 29 ft 3 kts 355°
2026-04-26 14:55 37.46896 15.06363 29 ft 4 kts 359°
2026-04-26 14:55 37.46935 15.06379 29 ft 5 kts 28°
2026-04-26 14:55 37.46959 15.06397 28 ft 0 kts 34°
2026-04-26 14:55 37.46961 15.06399 28 ft 0 kts 33°
2026-04-26 14:56 37.46963 15.06401 28 ft 0 kts 33°
2026-04-26 14:56 37.46964 15.06402 28 ft 0 kts 33°